Regional Weather Roundup
Issued by NWS

Home | Current Version | Previous Version | Graphics & Text | Print | Product List | Glossary On
Versions: 1 2 3 4 5 6 7 8 9 10 11 12 13 14 15 16 17 18 19 20 21 22 23 24 25 26 27 28 29 30 31 32 33 34 35 36 37 38 39 40 41 42 43 44 45 46 47 48 49 50
000
ASUS43 KLOT 290603
RWRIL

ILLINOIS REGIONAL WEATHER ROUNDUP
NATIONAL WEATHER SERVICE CHICAGO/ROMEOVILLE IL
100 AM CDT SAT APR 29 2017

NOTE: "FAIR" INDICATES FEW OR NO CLOUDS BELOW 12,000 FEET WITH NO
SIGNIFICANT WEATHER AND/OR OBSTRUCTIONS TO VISIBILITY.

* THESE STATIONS ARE NOT UNDER NWS QUALITY CONTROL. THEY ALSO MAY NOT
  REPORT WEATHER SUCH AS PRECIPITATION OR FOG.

ILZ001-002-007-009-015-016-024-290700-
NORTHWEST ILLINOIS

CITY           SKY/WX    TMP DP  RH WIND       PRES   REMARKS
MOLINE         CLOUDY    48  44  86 VRB5      29.96F
6HR MIN TEMP:  48; 6HR MAX TEMP:  50;

STERLING*      CLOUDY    47  45  93 N15G23    29.97F
SAVANNA*       CLOUDY    45  42  90 N8        30.00F
$$

ILZ003-004-008-010-011-017-018-290700-
NORTH CENTRAL ILLINOIS

CITY           SKY/WX    TMP DP  RH WIND       PRES   REMARKS
ROCKFORD       CLOUDY    47  43  86 NE16      30.00F
6HR MIN TEMP:  47; 6HR MAX TEMP:  51; 6HR PCP: TRACE;

FREEPORT*      CLOUDY    45  41  88 N10G16    30.02F
ROCHELLE*      CLOUDY    47  46  93 NE14G25   29.97F
DE KALB*       CLOUDY    48  44  85 NE18      29.98F
PERU*          CLOUDY    50  45  83 NE16G22   29.96R HAZE
$$

ILZ005-006-012>014-019>023-290700-
NORTHEAST ILLINOIS

CITY           SKY/WX    TMP DP  RH WIND       PRES   REMARKS
CHICAGO-OHARE  CLOUDY    46  40  79 NE14      30.00F
6HR MIN TEMP:  46; 6HR MAX TEMP:  55;

CHICAGO-MIDWAY CLOUDY    47  39  74 NE17G25   29.99F
6HR MIN TEMP:  47; 6HR MAX TEMP:  53;

AURORA         CLOUDY    50  41  71 NE13      29.98S
6HR MIN TEMP:  50; 6HR MAX TEMP:  60;

LANSING*       CLOUDY    47  40  78 N17G23    29.98F
JOLIET*        CLOUDY    50  41  70 NE13      29.98R
WAUKEGAN       CLOUDY    43  41  93 NE10      30.01F
6HR MIN TEMP:  43; 6HR MAX TEMP:  48;

DUPAGE AIRPORT CLOUDY    47  42  83 NE10      29.99F
6HR MIN TEMP:  47; 6HR MAX TEMP:  58;

KANKAKEE*      CLOUDY    49  45  84 NE12G18   30.01R
WHEELING       CLOUDY    44  42  93 N12       30.02F
6HR MIN TEMP:  44; 6HR MAX TEMP:  49;

MORRIS*        CLOUDY    50  42  74 NE7       29.96R
NORTHERLY ISL    N/A     44  39  82 MISG        N/A
$$

LMZ740>746-290700-
SOUTHERN LAKE MICHIGAN

STATION/POSITION SKY/WX   TEMP    WIND        PRES    VSBY  WAVE
                          AIR SEA DIR/SP/G                  HT/PER
                          (F)     (DEG/KT/KT) (MB)    (MI)  (FT/S)
SOUTHERN BUOY              42 41   20/ 16/ 17 1017.2          2/ 3
HARRISON CRIB              45      10/ 20/ 22   N/A
BURNHAM HARBOR             44     360/ 18/ 21   N/A
CALUMET HARBOR             45     350/ 14/ 20 1015.7F
BURNS HARBOR               46      20/ 17/ 19 1015.2F
MICHIGAN CITY              45      20/ 16/ 17   N/A
MICHIGAN CITY 6N           44 47                N/A           2/ 3
ST. JOSEPH                 47 48   40/ 17/ 21 1016.3F         3/ 3
$$

ILZ025>027-034>036-040-047-049-050-058-095>099-290700-
WEST-CENTRAL ILLINOIS

CITY           SKY/WX    TMP DP  RH WIND       PRES   REMARKS
QUINCY         CLOUDY    55  54  96 N10       29.90R FOG
GALESBURG*     CLOUDY    48  47  98 N14       29.95R FOG
MACOMB*        CLOUDY    52  52  99 N10       29.96R FOG
JACKSONVILLE*  CLOUDY    55  55  97 NE6       29.90S FOG
PITTSFIELD*    CLOUDY    56  56  99 N7        29.89F FOG
$$

ILZ028>032-037-038-041>044-048-051>054-059>061-290700-
CENTRAL ILLINOIS

CITY           SKY/WX    TMP DP  RH WIND       PRES   REMARKS
PONTIAC        CLOUDY    55  55  98 E9        29.96R
BLOOMINGTON    CLOUDY    54  53  97 E9        29.94R FOG
DECATUR        CLOUDY    56  56 100 NE8       29.91S
PEORIA         CLOUDY    56  55  97 NE6       29.94R
6HR MIN TEMP:  56; 6HR MAX TEMP:  60;

LACON*         CLOUDY    52  51  97 NE5       29.94R FOG
LINCOLN*       CLOUDY    55  55 100 N6        29.89F FOG
SPRINGFIELD    CLOUDY    57  54  89 NE8       29.91S FOG
6HR MIN TEMP:  57; 6HR MAX TEMP:  58; 6HR PCP: TRACE;

TAYLORVILLE    CLOUDY    55  55  99 N8        29.89F FOG
6HR MIN TEMP:  55; 6HR MAX TEMP:  56;

$$

ILZ033-039-045-046-055>057-062-063-290700-
EAST-CENTRAL ILLINOIS

CITY           SKY/WX    TMP DP  RH WIND       PRES   REMARKS
CHAMPAIGN      CLOUDY    56  53  90 N10       29.91F FOG
RANTOUL*       CLOUDY    56  56  98 N12       29.92F FOG
MATTOON        CLOUDY    55  55 100 NE8       29.87S FOG
PARIS*         CLOUDY    55  55  99 NE5       29.91R FOG
$$

ILZ079-100>102-290700-
SOUTHWEST ILLINOIS

CITY           SKY/WX    TMP DP  RH WIND       PRES   REMARKS
ALTON          LGT RAIN  56  55  97 CALM      29.89R
BELLEVILLE     CLOUDY    57  57 100 NE6       29.87R FOG
CAHOKIA*       LGT RAIN  59  56  89 N6        29.88R FOG
$$

ILZ064>066-069>071-074>076-080>082-084>086-088>090-092>094-290700-
SOUTH-CENTRAL ILLINOIS

CITY           SKY/WX    TMP DP  RH WIND       PRES   REMARKS
CARBONDALE     LGT RAIN  63  63 100 NE7       29.83R FOG
6HR MIN TEMP:  62; 6HR MAX TEMP:  65; 6HR PCP:  0.44;

CAIRO*         CLOUDY    72  70  96 N6        29.81R
EFFINGHAM*     CLOUDY    57  57 100 N3        29.88S FOG
MARION         HVY RAIN  64  64 100 N5        29.85F
MT. VERNON     CLOUDY    58  58 100 N3        29.86R FOG
CENTRALIA*     CLOUDY    59  59 100 CALM      29.88R FOG
SALEM*         CLOUDY    59  57  94 CALM      29.88R FOG
METROPOLIS*    CLOUDY    75  70  84 CALM      29.83R
$$

ILZ067-068-072-073-078-083-087-091-290700-
SOUTHEAST ILLINOIS

CITY           SKY/WX    TMP DP  RH WIND       PRES   REMARKS
LAWRENCEVILLE  LGT RAIN  59  59 100 CALM      29.89R FOG
FLORA*         CLOUDY    59  58  96 E3        29.87S THUNDER FOG
FAIRFIELD*     CLOUDY    59  59 100 CALM      29.85F
HARRISBURG*    RAIN      64  64 100 NE8       29.85R
ROBINSON*      CLOUDY    57  57  99 CALM      29.88S FOG
CARMI*         TSTM      61  61 100 CALM      29.87S
$$

ABBREVIATIONS USED IN REMARKS
   TC - TEMPERATURE IN CELSIUS
  WCI - WIND CHILL INDEX
   HX - HEAT INDEX
  VSB - VISIBILITY
$$





USA.gov is the U.S. government's official web portal to all federal, state and local government web resources and services.